N200CV ZYHB-ZYHB

Flight info

Callsign N200CV
Flight time 1h 19m
Altitude 3000
Route ZYHB ZYHB
Aircraft C750/M-SBDE3FGHRWXY/S

Departure

Time 2026-04-21 12:10
Airport Harbin Taiping International Airport (ZYHB)

Arrival

Time 2026-04-21 13:29
Airport Harbin Taiping International Airport (ZYHB)
Time Latitude Longitude Altitude Speed Heading
2026-04-21 11:28 45.62841 126.25001 444 ft 0 kts 306°
2026-04-21 11:58 45.62842 126.25000 444 ft 0 kts 306°
2026-04-21 12:04 45.62843 126.25000 432 ft 0 kts 322°
2026-04-21 12:04 45.62845 126.25001 433 ft 0 kts 347°
2026-04-21 12:04 45.62847 126.25003 435 ft 0 kts 21°
2026-04-21 12:05 45.62848 126.25009 435 ft 1 kts 66°
2026-04-21 12:05 45.62839 126.25030 444 ft 4 kts 132°
2026-04-21 12:05 45.62849 126.25064 436 ft 6 kts 56°
2026-04-21 12:05 45.62884 126.25136 444 ft 12 kts 38°
2026-04-21 12:06 45.62966 126.25230 437 ft 19 kts 37°
2026-04-21 12:06 45.63085 126.25367 442 ft 25 kts 53°
2026-04-21 12:06 45.63190 126.25602 441 ft 31 kts 56°
2026-04-21 12:06 45.63320 126.25850 430 ft 33 kts 41°
2026-04-21 12:07 45.63514 126.26080 436 ft 37 kts 43°
2026-04-21 12:07 45.63599 126.26215 435 ft 8 kts 109°
2026-04-21 12:07 45.63552 126.26279 432 ft 11 kts 168°
2026-04-21 12:07 45.63455 126.26300 439 ft 16 kts 186°
2026-04-21 12:08 45.63420 126.26291 437 ft 1 kts 216°
2026-04-21 12:08 45.63420 126.26290 437 ft 0 kts 224°
2026-04-21 12:08 45.63408 126.26276 439 ft 6 kts 216°
2026-04-21 12:09 45.63245 126.26079 427 ft 67 kts 220°
2026-04-21 12:09 45.62696 126.25435 438 ft 129 kts 218°
2026-04-21 12:09 45.61964 126.24588 679 ft 134 kts 221°
2026-04-21 12:09 45.61200 126.23749 910 ft 144 kts 220°
2026-04-21 12:10 45.60350 126.22888 1141 ft 159 kts 220°
2026-04-21 12:10 45.59332 126.21955 1139 ft 188 kts 217°
2026-04-21 12:10 45.58232 126.20962 1575 ft 184 kts 219°
2026-04-21 12:10 45.57146 126.20065 2069 ft 178 kts 218°
2026-04-21 12:11 45.56048 126.19209 2446 ft 181 kts 218°
2026-04-21 12:11 45.54905 126.18342 2699 ft 190 kts 217°
2026-04-21 12:11 45.53718 126.17431 2850 ft 203 kts 218°
2026-04-21 12:11 45.52420 126.16400 2829 ft 219 kts 218°
2026-04-21 12:12 45.51070 126.15309 3021 ft 233 kts 218°
2026-04-21 12:12 45.49580 126.14066 3029 ft 262 kts 218°
2026-04-21 12:12 45.47962 126.12678 3028 ft 271 kts 218°
2026-04-21 12:12 45.46367 126.11316 3020 ft 268 kts 218°
2026-04-21 12:13 45.44705 126.09879 3018 ft 279 kts 218°
2026-04-21 12:13 45.43066 126.08466 3013 ft 273 kts 218°
2026-04-21 12:13 45.41457 126.07082 3007 ft 268 kts 218°
2026-04-21 12:13 45.39862 126.05715 2998 ft 265 kts 218°
2026-04-21 12:14 45.38297 126.04378 2993 ft 259 kts 218°
2026-04-21 12:14 45.36762 126.03072 2991 ft 255 kts 218°
2026-04-21 12:14 45.35192 126.01909 2937 ft 259 kts 204°
2026-04-21 12:14 45.33394 126.01978 2885 ft 271 kts 166°
2026-04-21 12:15 45.31869 126.03526 2905 ft 272 kts 133°
2026-04-21 12:15 45.30687 126.05626 3016 ft 274 kts 128°
2026-04-21 12:15 45.29505 126.07799 3012 ft 282 kts 128°
2026-04-21 12:15 45.28309 126.10014 3010 ft 282 kts 128°
2026-04-21 12:16 45.27116 126.12226 3004 ft 282 kts 128°
2026-04-21 12:16 45.25923 126.14428 3005 ft 281 kts 128°
2026-04-21 12:16 45.24730 126.16626 3004 ft 280 kts 128°
2026-04-21 12:16 45.23544 126.18827 3000 ft 281 kts 128°
2026-04-21 12:17 45.22451 126.21107 2939 ft 280 kts 113°
2026-04-21 12:17 45.22235 126.23762 2889 ft 268 kts 74°
2026-04-21 12:17 45.23059 126.25986 2933 ft 248 kts 43°
2026-04-21 12:17 45.24232 126.27719 2993 ft 243 kts 38°
2026-04-21 12:18 45.25425 126.29420 3003 ft 243 kts 38°
2026-04-21 12:18 45.26619 126.31126 3000 ft 244 kts 38°
2026-04-21 12:18 45.27816 126.32836 3005 ft 244 kts 38°
2026-04-21 12:18 45.29017 126.34552 3005 ft 245 kts 38°
2026-04-21 12:19 45.30202 126.36248 3007 ft 245 kts 38°
2026-04-21 12:19 45.31404 126.37966 3006 ft 246 kts 38°
2026-04-21 12:19 45.32613 126.39694 2998 ft 247 kts 38°
2026-04-21 12:19 45.33830 126.41432 3008 ft 249 kts 38°
2026-04-21 12:20 45.35054 126.43177 3007 ft 249 kts 38°
2026-04-21 12:20 45.36278 126.44921 3003 ft 249 kts 38°
2026-04-21 12:20 45.37517 126.46685 3012 ft 263 kts 38°
2026-04-21 12:20 45.38830 126.48533 3006 ft 260 kts 38°
2026-04-21 12:21 45.40081 126.50312 3002 ft 249 kts 38°
2026-04-21 12:21 45.41277 126.52028 2987 ft 240 kts 38°
2026-04-21 12:21 45.42433 126.53696 2983 ft 233 kts 38°
2026-04-21 12:21 45.43626 126.55400 2999 ft 245 kts 38°
2026-04-21 12:22 45.44417 126.56529 2986 ft 247 kts 38°
2026-04-21 12:22 45.45648 126.58273 3002 ft 250 kts 38°
2026-04-21 12:22 45.46887 126.60026 3002 ft 251 kts 38°
2026-04-21 12:22 45.48131 126.61784 2996 ft 252 kts 38°
2026-04-21 12:23 45.49377 126.63545 2995 ft 253 kts 38°
2026-04-21 12:23 45.50621 126.65310 2998 ft 252 kts 38°
2026-04-21 12:23 45.51973 126.66816 2923 ft 241 kts 16°
2026-04-21 12:23 45.53486 126.66908 2897 ft 200 kts 337°
2026-04-21 12:24 45.54548 126.65915 2970 ft 173 kts 318°
2026-04-21 12:24 45.55495 126.64801 3002 ft 177 kts 319°
2026-04-21 12:24 45.56461 126.63677 2830 ft 179 kts 319°
2026-04-21 12:24 45.57417 126.62550 2641 ft 178 kts 318°
2026-04-21 12:25 45.58376 126.61442 2367 ft 181 kts 319°
2026-04-21 12:25 45.59364 126.60312 2071 ft 182 kts 319°
2026-04-21 12:25 45.60320 126.59200 2077 ft 176 kts 319°
2026-04-21 12:25 45.61273 126.58083 2082 ft 177 kts 319°
2026-04-21 12:26 45.62226 126.56969 2082 ft 178 kts 318°
2026-04-21 12:26 45.63246 126.55809 2116 ft 195 kts 319°
2026-04-21 12:26 45.64310 126.54604 2119 ft 196 kts 319°
2026-04-21 12:26 45.65385 126.53377 2116 ft 199 kts 319°
2026-04-21 12:27 45.66455 126.52136 2110 ft 195 kts 319°
2026-04-21 12:27 45.67469 126.50951 2099 ft 177 kts 319°
2026-04-21 12:27 45.68371 126.49921 2085 ft 159 kts 319°
2026-04-21 12:27 45.69236 126.48921 2090 ft 161 kts 317°
2026-04-21 12:28 45.69900 126.47642 2096 ft 161 kts 300°
2026-04-21 12:28 45.70424 126.46221 2080 ft 159 kts 298°
2026-04-21 12:28 45.70938 126.44826 2084 ft 159 kts 299°
2026-04-21 12:28 45.71450 126.43428 2086 ft 159 kts 298°
2026-04-21 12:29 45.71939 126.42003 2065 ft 161 kts 291°
2026-04-21 12:29 45.71970 126.40398 2077 ft 167 kts 267°
2026-04-21 12:29 45.71621 126.38782 2088 ft 172 kts 258°
2026-04-21 12:29 45.71229 126.37169 2090 ft 171 kts 258°
2026-04-21 12:30 45.70857 126.35585 2098 ft 170 kts 259°
2026-04-21 12:30 45.70156 126.34180 2079 ft 183 kts 228°
2026-04-21 12:30 45.69139 126.33030 1972 ft 190 kts 228°
2026-04-21 12:30 45.68159 126.31860 1655 ft 178 kts 227°
2026-04-21 12:31 45.67220 126.30758 1415 ft 166 kts 227°
2026-04-21 12:31 45.66395 126.29787 1203 ft 142 kts 225°
2026-04-21 12:31 45.65679 126.28936 1031 ft 130 kts 226°
2026-04-21 12:31 45.64988 126.28131 855 ft 127 kts 224°
2026-04-21 12:32 45.64313 126.27329 699 ft 126 kts 223°
2026-04-21 12:32 45.63637 126.26534 528 ft 126 kts 221°
2026-04-21 12:32 45.62988 126.25771 441 ft 109 kts 216°
2026-04-21 12:32 45.62295 126.24980 568 ft 134 kts 220°
2026-04-21 12:33 45.61599 126.24169 942 ft 130 kts 224°
2026-04-21 12:33 45.60905 126.23331 1599 ft 132 kts 231°
2026-04-21 12:33 45.60119 126.22602 2280 ft 145 kts 218°
2026-04-21 12:33 45.59160 126.21945 2610 ft 165 kts 218°
2026-04-21 12:34 45.58111 126.21164 2770 ft 167 kts 218°
2026-04-21 12:34 45.57002 126.20328 3091 ft 197 kts 218°
2026-04-21 12:34 45.55703 126.19286 3037 ft 223 kts 218°
2026-04-21 12:34 45.54363 126.18198 3227 ft 219 kts 218°
2026-04-21 12:35 45.52946 126.17027 3722 ft 252 kts 218°
2026-04-21 12:35 45.51440 126.15758 4514 ft 249 kts 218°
2026-04-21 12:35 45.49928 126.14484 5526 ft 256 kts 218°
2026-04-21 12:35 45.48381 126.13174 6536 ft 260 kts 218°
2026-04-21 12:36 45.46834 126.11859 7560 ft 265 kts 218°
2026-04-21 12:36 45.45239 126.10506 8634 ft 268 kts 218°
2026-04-21 12:36 45.43635 126.09155 9713 ft 268 kts 218°
2026-04-21 12:36 45.42019 126.07813 10710 ft 269 kts 219°
2026-04-21 12:37 45.40378 126.06505 11745 ft 271 kts 219°
2026-04-21 12:37 45.38714 126.05221 12818 ft 272 kts 220°
2026-04-21 12:37 45.37045 126.03931 13910 ft 272 kts 220°
2026-04-21 12:37 45.35387 126.02700 15097 ft 265 kts 220°
2026-04-21 12:38 45.33759 126.01540 16314 ft 259 kts 220°
2026-04-21 12:38 45.32150 126.00436 17462 ft 256 kts 220°
2026-04-21 12:38 45.30537 125.99356 18425 ft 258 kts 220°
2026-04-21 12:38 45.28684 125.98826 19161 ft 302 kts 192°
2026-04-21 12:39 45.26550 125.99836 19938 ft 348 kts 159°
2026-04-21 12:39 45.24751 126.02300 20824 ft 369 kts 136°
2026-04-21 12:39 45.23226 126.05291 21628 ft 379 kts 131°
2026-04-21 12:39 45.21728 126.08416 22383 ft 387 kts 130°
2026-04-21 12:40 45.20218 126.11607 23070 ft 399 kts 130°
2026-04-21 12:40 45.18634 126.14991 23173 ft 427 kts 127°
2026-04-21 12:40 45.17640 126.19060 23564 ft 444 kts 96°
2026-04-21 12:40 45.17755 126.23295 23911 ft 415 kts 72°
2026-04-21 12:41 45.18854 126.26972 23827 ft 408 kts 47°
2026-04-21 12:41 45.20542 126.30197 24400 ft 405 kts 39°
2026-04-21 12:41 45.22336 126.33284 25200 ft 407 kts 38°
2026-04-21 12:41 45.24175 126.36372 25869 ft 412 kts 38°
2026-04-21 12:42 45.26046 126.39487 26567 ft 417 kts 38°
2026-04-21 12:42 45.27945 126.42634 27270 ft 422 kts 38°
2026-04-21 12:42 45.29871 126.45820 27980 ft 428 kts 38°
2026-04-21 12:42 45.31824 126.49043 28699 ft 433 kts 38°
2026-04-21 12:43 45.33776 126.52261 29388 ft 438 kts 38°
2026-04-21 12:43 45.35780 126.55558 30026 ft 443 kts 38°
2026-04-21 12:43 45.37812 126.58891 30610 ft 447 kts 38°
2026-04-21 12:43 45.39866 126.62241 31200 ft 451 kts 38°
2026-04-21 12:44 45.41947 126.65615 31770 ft 455 kts 38°
2026-04-21 12:44 45.44053 126.69007 32337 ft 460 kts 38°
2026-04-21 12:44 45.46189 126.72424 32904 ft 464 kts 38°
2026-04-21 12:44 45.48350 126.75861 33458 ft 468 kts 38°
2026-04-21 12:45 45.50538 126.79319 33967 ft 472 kts 38°
2026-04-21 12:45 45.52745 126.82772 34615 ft 470 kts 38°
2026-04-21 12:45 45.54972 126.86193 35134 ft 472 kts 38°
2026-04-21 12:45 45.57236 126.89621 35597 ft 475 kts 38°
2026-04-21 12:46 45.59520 126.93044 36074 ft 478 kts 38°
2026-04-21 12:46 45.61835 126.96481 36539 ft 481 kts 38°
2026-04-21 12:46 45.64269 126.99723 36953 ft 475 kts 30°
2026-04-21 12:46 45.66986 127.02338 37467 ft 467 kts 21°
2026-04-21 12:47 45.69915 127.04257 37892 ft 460 kts 12°
2026-04-21 12:47 45.72984 127.05438 38316 ft 453 kts
2026-04-21 12:47 45.76060 127.05858 38643 ft 447 kts 353°
2026-04-21 12:47 45.79179 127.05519 38948 ft 442 kts 344°
2026-04-21 12:48 45.82099 127.04454 39256 ft 438 kts 335°
2026-04-21 12:48 45.84862 127.02669 39566 ft 434 kts 326°
2026-04-21 12:48 45.87351 127.00235 39877 ft 432 kts 317°
2026-04-21 12:48 45.89604 126.97361 40192 ft 434 kts 313°
2026-04-21 12:49 45.91752 126.94298 40469 ft 438 kts 311°
2026-04-21 12:49 45.93864 126.91140 40962 ft 434 kts 310°
2026-04-21 12:49 45.95936 126.87984 41391 ft 435 kts 310°
2026-04-21 12:49 45.98009 126.84800 41791 ft 438 kts 310°
2026-04-21 12:50 46.00092 126.81558 42037 ft 442 kts 308°
2026-04-21 12:50 46.01916 126.78002 42380 ft 441 kts 299°
2026-04-21 12:50 46.03272 126.74053 42807 ft 439 kts 290°
2026-04-21 12:50 46.04126 126.69844 43224 ft 439 kts 281°
2026-04-21 12:51 46.04455 126.65476 43637 ft 439 kts 271°
2026-04-21 12:51 46.04245 126.61111 44164 ft 438 kts 262°
2026-04-21 12:51 46.03512 126.56846 44559 ft 441 kts 253°
2026-04-21 12:51 46.02268 126.52806 44953 ft 444 kts 244°
2026-04-21 12:52 46.00566 126.49144 45337 ft 448 kts 234°
2026-04-21 12:52 45.98419 126.45863 45641 ft 454 kts 227°
2026-04-21 12:52 45.96015 126.42979 46465 ft 443 kts 222°
2026-04-21 12:52 45.93569 126.40332 46870 ft 441 kts 221°
2026-04-21 12:53 45.91115 126.37793 47602 ft 428 kts 220°
2026-04-21 12:53 45.88684 126.35338 47998 ft 425 kts 220°
2026-04-21 12:53 45.86258 126.32915 48319 ft 424 kts 220°
2026-04-21 12:53 45.83826 126.30498 48559 ft 426 kts 219°
2026-04-21 12:54 45.81385 126.28075 48808 ft 426 kts 219°
2026-04-21 12:54 45.78953 126.25662 49134 ft 425 kts 219°
2026-04-21 12:54 45.76519 126.23249 49421 ft 425 kts 219°
2026-04-21 12:54 45.74086 126.20837 49668 ft 425 kts 219°
2026-04-21 12:55 45.71655 126.18429 49907 ft 425 kts 220°
2026-04-21 12:55 45.69223 126.16039 50201 ft 424 kts 220°
2026-04-21 12:55 45.66781 126.13650 50445 ft 424 kts 220°
2026-04-21 12:55 45.64374 126.11297 50660 ft 424 kts 220°
2026-04-21 12:56 45.61935 126.08914 50866 ft 424 kts 220°
2026-04-21 12:56 45.59531 126.06573 51024 ft 411 kts 220°
2026-04-21 12:56 45.57182 126.04299 51000 ft 406 kts 220°
2026-04-21 12:57 45.49528 125.98349 51015 ft 432 kts 201°
2026-04-21 12:57 45.46571 125.97545 51020 ft 444 kts 191°
2026-04-21 12:57 45.43445 125.97465 51033 ft 455 kts 182°
2026-04-21 12:58 45.40284 125.98141 51032 ft 465 kts 172°
2026-04-21 12:58 45.34228 126.01734 51017 ft 480 kts 153°
2026-04-21 12:59 45.29124 126.07978 50998 ft 491 kts 135°
2026-04-21 12:59 45.24786 126.15555 51027 ft 498 kts 131°
2026-04-21 13:00 45.20598 126.23387 51022 ft 498 kts 130°
2026-04-21 13:00 45.16457 126.31265 51026 ft 498 kts 130°
2026-04-21 13:01 45.12336 126.39144 51023 ft 498 kts 130°
2026-04-21 13:01 45.08217 126.47018 51019 ft 497 kts 130°
2026-04-21 13:02 45.04117 126.54850 50812 ft 500 kts 130°
2026-04-21 13:02 45.02120 126.58886 50694 ft 501 kts 123°
2026-04-21 13:02 44.99470 126.67950 50726 ft 502 kts 104°
2026-04-21 13:03 44.98881 126.77766 50736 ft 504 kts 84°
2026-04-21 13:03 45.00407 126.87348 50760 ft 498 kts 65°
2026-04-21 13:04 45.03865 126.95731 50741 ft 492 kts 46°
2026-04-21 13:04 45.07567 127.01698 49906 ft 483 kts 41°
2026-04-21 13:05 45.09897 127.05147 48973 ft 486 kts 40°
2026-04-21 13:05 45.12263 127.08572 48159 ft 486 kts 40°
2026-04-21 13:05 45.14635 127.11977 47331 ft 485 kts 40°
2026-04-21 13:05 45.17012 127.15375 46456 ft 485 kts 40°
2026-04-21 13:06 45.19386 127.18767 45560 ft 485 kts 40°
2026-04-21 13:06 45.21762 127.22161 44635 ft 485 kts 40°
2026-04-21 13:06 45.24137 127.25552 43639 ft 484 kts 39°
2026-04-21 13:06 45.26509 127.28954 42651 ft 484 kts 39°
2026-04-21 13:07 45.28864 127.32362 41674 ft 483 kts 39°
2026-04-21 13:07 45.31203 127.35786 40699 ft 482 kts 39°
2026-04-21 13:07 45.33532 127.39221 39703 ft 482 kts 39°
2026-04-21 13:07 45.35845 127.42664 38720 ft 481 kts 39°
2026-04-21 13:08 45.38138 127.46121 37529 ft 480 kts 39°
2026-04-21 13:08 45.40398 127.49570 36128 ft 484 kts 39°
2026-04-21 13:08 45.42687 127.53117 34692 ft 488 kts 39°
2026-04-21 13:08 45.44978 127.56727 33116 ft 494 kts 39°
2026-04-21 13:09 45.47270 127.60394 31490 ft 496 kts 39°
2026-04-21 13:09 45.49560 127.64080 29838 ft 496 kts 39°
2026-04-21 13:09 45.51847 127.67785 27637 ft 498 kts 39°
2026-04-21 13:09 45.54137 127.71502 25419 ft 499 kts 39°
2026-04-21 13:10 45.56430 127.75215 23162 ft 499 kts 40°
2026-04-21 13:10 45.58731 127.78922 20977 ft 493 kts 40°
2026-04-21 13:10 45.60968 127.82517 19232 ft 476 kts 40°
2026-04-21 13:10 45.63358 127.85550 17200 ft 445 kts 24°
2026-04-21 13:11 45.66057 127.87078 15401 ft 405 kts
2026-04-21 13:11 45.68727 127.87080 13582 ft 370 kts 342°
2026-04-21 13:11 45.70991 127.85676 11551 ft 347 kts 321°
2026-04-21 13:11 45.72495 127.83081 10013 ft 341 kts 293°
2026-04-21 13:12 45.72812 127.79784 9864 ft 342 kts 266°
2026-04-21 13:12 45.72000 127.76587 9817 ft 348 kts 242°
2026-04-21 13:12 45.70882 127.73539 9799 ft 345 kts 255°
2026-04-21 13:12 45.70599 127.70171 9799 ft 341 kts 270°
2026-04-21 13:13 45.70658 127.66779 9845 ft 341 kts 274°
2026-04-21 13:13 45.70793 127.63388 9841 ft 341 kts 274°
2026-04-21 13:13 45.70945 127.60006 9843 ft 341 kts 274°
2026-04-21 13:13 45.71104 127.56609 9842 ft 341 kts 274°
2026-04-21 13:14 45.71263 127.53209 9826 ft 344 kts 275°
2026-04-21 13:14 45.71420 127.49792 9818 ft 343 kts 275°
2026-04-21 13:14 45.71573 127.46417 9826 ft 344 kts 274°
2026-04-21 13:14 45.71728 127.43004 9826 ft 344 kts 274°
2026-04-21 13:15 45.71881 127.39650 9818 ft 321 kts 274°
2026-04-21 13:15 45.72024 127.36506 9821 ft 317 kts 275°
2026-04-21 13:15 45.72164 127.33374 9824 ft 316 kts 275°
2026-04-21 13:15 45.72303 127.30242 9822 ft 315 kts 275°
2026-04-21 13:16 45.72441 127.27115 9827 ft 315 kts 275°
2026-04-21 13:16 45.72580 127.23985 9826 ft 314 kts 275°
2026-04-21 13:16 45.72718 127.20860 9825 ft 315 kts 274°
2026-04-21 13:16 45.72856 127.17733 9825 ft 315 kts 274°
2026-04-21 13:17 45.72996 127.14605 9824 ft 314 kts 275°
2026-04-21 13:17 45.73135 127.11481 9825 ft 315 kts 275°
2026-04-21 13:17 45.73273 127.08370 9824 ft 304 kts 275°
2026-04-21 13:17 45.73396 127.05542 9814 ft 266 kts 274°
2026-04-21 13:18 45.73500 127.03033 9818 ft 245 kts 275°
2026-04-21 13:18 45.73602 127.00602 9818 ft 248 kts 275°
2026-04-21 13:18 45.73702 126.98115 9814 ft 250 kts 275°
2026-04-21 13:18 45.73797 126.95635 9776 ft 245 kts 275°
2026-04-21 13:19 45.73888 126.93209 8838 ft 247 kts 275°
2026-04-21 13:19 45.73979 126.90732 8168 ft 250 kts 275°
2026-04-21 13:19 45.74064 126.88260 7910 ft 248 kts 275°
2026-04-21 13:19 45.74144 126.85804 7593 ft 246 kts 275°
2026-04-21 13:20 45.74222 126.83361 7271 ft 245 kts 275°
2026-04-21 13:20 45.74298 126.80938 6944 ft 243 kts 275°
2026-04-21 13:20 45.74364 126.78526 6629 ft 242 kts 275°
2026-04-21 13:20 45.74428 126.76118 6305 ft 241 kts 275°
2026-04-21 13:21 45.74485 126.73723 5990 ft 240 kts 275°
2026-04-21 13:21 45.74539 126.71373 5673 ft 238 kts 275°
2026-04-21 13:21 45.74593 126.68973 5354 ft 238 kts 275°
2026-04-21 13:21 45.74642 126.66609 5042 ft 237 kts 275°
2026-04-21 13:22 45.74684 126.64262 4893 ft 234 kts 275°
2026-04-21 13:22 45.74721 126.61911 4655 ft 238 kts 275°
2026-04-21 13:22 45.74754 126.59593 4347 ft 230 kts 275°
2026-04-21 13:22 45.74775 126.57373 4045 ft 208 kts 275°
2026-04-21 13:23 45.74780 126.55463 3813 ft 181 kts 274°
2026-04-21 13:23 45.74773 126.53767 3588 ft 163 kts 275°
2026-04-21 13:23 45.74760 126.52161 3380 ft 161 kts 275°
2026-04-21 13:23 45.74742 126.50563 3176 ft 160 kts 275°
2026-04-21 13:24 45.74721 126.48973 2973 ft 160 kts 275°
2026-04-21 13:24 45.74695 126.47385 2760 ft 159 kts 275°
2026-04-21 13:24 45.74661 126.45798 2550 ft 159 kts 275°
2026-04-21 13:24 45.74626 126.44225 2335 ft 156 kts 275°
2026-04-21 13:25 45.74591 126.42676 2093 ft 157 kts 274°
2026-04-21 13:25 45.74514 126.41146 2050 ft 159 kts 263°
2026-04-21 13:25 45.73836 126.39798 2089 ft 175 kts 235°
2026-04-21 13:25 45.72948 126.38581 2106 ft 177 kts 234°
2026-04-21 13:26 45.72083 126.37363 2130 ft 177 kts 234°
2026-04-21 13:26 45.71212 126.36120 2103 ft 174 kts 235°
2026-04-21 13:26 45.70501 126.34755 2080 ft 174 kts 239°
2026-04-21 13:26 45.69594 126.33573 2096 ft 180 kts 230°
2026-04-21 13:27 45.68631 126.32408 1830 ft 181 kts 229°
2026-04-21 13:27 45.67666 126.31273 1555 ft 179 kts 228°
2026-04-21 13:27 45.66709 126.30150 1310 ft 173 kts 226°
2026-04-21 13:27 45.65838 126.29134 1074 ft 148 kts 224°
2026-04-21 13:28 45.65107 126.28264 884 ft 125 kts 223°
2026-04-21 13:28 45.64470 126.27525 734 ft 115 kts 222°
2026-04-21 13:28 45.63848 126.26778 591 ft 119 kts 221°
2026-04-21 13:28 45.63211 126.26027 463 ft 115 kts 221°
2026-04-21 13:29 45.62661 126.25393 439 ft 82 kts 219°
2026-04-21 13:29 45.62315 126.24987 441 ft 59 kts 219°
2026-04-21 13:29 45.62096 126.24649 449 ft 21 kts 281°
2026-04-21 13:29 45.62113 126.24505 449 ft 9 kts 279°
2026-04-21 13:30 45.62100 126.24434 449 ft 7 kts 232°
2026-04-21 13:30 45.62065 126.24383 449 ft 10 kts 220°
2026-04-21 13:30 45.61987 126.24291 450 ft 19 kts 220°
2026-04-21 13:30 45.61844 126.24117 451 ft 34 kts 219°
2026-04-21 13:31 45.61668 126.23915 452 ft 28 kts 220°
2026-04-21 13:31 45.61548 126.23777 453 ft 14 kts 223°
2026-04-21 13:31 45.61493 126.23711 453 ft 8 kts 234°
2026-04-21 13:31 45.61503 126.23660 454 ft 3 kts 310°
2026-04-21 13:32 45.61513 126.23641 454 ft 1 kts 296°
2026-04-21 13:32 45.61520 126.23610 454 ft 5 kts 287°
2026-04-21 13:32 45.61524 126.23565 454 ft 3 kts 242°
2026-04-21 13:32 45.61523 126.23543 454 ft 2 kts 294°
2026-04-21 13:33 45.61533 126.23529 454 ft 2 kts 315°
2026-04-21 13:33 45.61533 126.23520 454 ft 1 kts 269°
2026-04-21 13:33 45.61521 126.23503 454 ft 3 kts 213°